Home > Weather > Virginia Beach > Past weeks

Flag for USA Past Weather in Virginia Beach, Virginia, USA — Yesterday and Last 2 Weeks

Now
83 °F

Mostly cloudy.


Feels Like: 89 °F
Forecast: 77 / 86 °F
Wind: 9 mph from Northeast

Location: Virginia Beach - Oceana

Current Time: Aug 29, 2016 at 5:17:34 AM

Latest Report: Aug 29, 2016 at 4:56 AM


Visibility: 10 mi

Pressure: 30.10 "Hg

Humidity: 72%

Dew Point: 73 °F

Location of Virginia BeachLocation

Past Weather in Virginia Beach — Graph

°F

Virginia Beach Temperature Yesterday

Maximum temperature yesterday: 91 °F (at 12:56 PM)
Minimum temperature yesterday: 82 °F (at 4:56 AM)
Average temperature yesterday: 85 °F

High & Low Weather Summary for the Past Weeks

 TemperatureHumidityPressure
High100 °F (Aug 16, 3:56 PM)88% (Aug 27, 4:56 AM)30.32 "Hg (Aug 27, 4:56 AM)
Low67 °F (Aug 24, 6:56 AM)36% (Aug 23, 3:56 PM)29.76 "Hg (Aug 21, 4:56 PM)
Average85 °F62%30.08 "Hg
* Reported Aug 14 3:56 AM — Aug 29 3:56 AM, Virginia Beach, Weather by CustomWeather, © 2016

Note: Actual official high and low records may vary slightly from our data, if they occured in-between our weather recording intervals... More about our weather records

Advertising

Virginia Beach Weather History for the Previous 24 Hours

Scroll right to see more
 ConditionsComfort  
Time TempWeatherWind HumidityBarometerVisibility
3:56 AM
Mon, Aug 29
83 °FMostly cloudy.12 mph72%30.10 "Hg10 mi
2:56 AM82 °FPartly cloudy.7 mph72%30.11 "Hg10 mi
1:56 AM82 °FPassing clouds.10 mph72%30.13 "Hg10 mi
12:56 AM83 °FPassing clouds.7 mph72%30.14 "Hg10 mi
11:56 PM
Sun, Aug 28
82 °FPartly cloudy.5 mph72%30.12 "Hg10 mi
10:56 PM82 °FPartly cloudy.6 mph72%30.12 "Hg10 mi
9:56 PM83 °FPassing clouds.8 mph68%30.13 "Hg10 mi
8:56 PM82 °FPassing clouds.5 mph67%30.14 "Hg10 mi
7:56 PM83 °FPartly sunny.5 mph65%30.13 "Hg10 mi
6:56 PM84 °FPartly sunny.7 mph65%30.13 "Hg10 mi
5:56 PM84 °FPartly sunny.9 mph63%30.13 "Hg10 mi
4:56 PM86 °FBroken clouds.10 mph61%30.14 "Hg10 mi
3:56 PM86 °FScattered clouds.8 mph61%30.15 "Hg10 mi
2:56 PM88 °FBroken clouds.10 mph57%30.16 "Hg10 mi
1:56 PM89 °FScattered clouds.12 mph57%30.18 "Hg10 mi
12:56 PM91 °FScattered clouds.10 mph57%30.19 "Hg10 mi
11:56 AM88 °FBroken clouds.10 mph61%30.19 "Hg10 mi
10:56 AM87 °FMostly cloudy.9 mph63%30.19 "Hg10 mi
9:56 AM85 °FMostly cloudy.8 mph65%30.19 "Hg10 mi
8:56 AM86 °FPartly sunny.8 mph65%30.18 "Hg10 mi
7:56 AM84 °FPartly sunny.9 mph70%30.16 "Hg10 mi
6:56 AM83 °FPassing clouds.5 mph72%30.15 "Hg10 mi
5:56 AM82 °FPassing clouds.5 mph72%30.13 "Hg10 mi
Weather by CustomWeather, © 2016

See weather overviewHow to use our weather pages